Location: Anglesey
(53.1800°N, 4.2200°W)
Time: 05:15:55
(UTC+00:00)

N. Korean satellite - Pass Details

Date: 16 October 2017
Orbit: 461 x 513 km, 97.2° (Epoch: 12 December)

Event Time Altitude Azimuth Distance (km) Brightness Sun altitude
Rises 20:32:28 0° 218° (SW) 2,530 10.5 -20.8°
Reaches altitude 10° 20:35:54 10° 254° (WSW) 1,645 10.1 -21.3°
Maximum altitude 20:37:01 11° 273° (W) 1,571 10.2 -21.4°
Drops below altitude 10° 20:38:08 10° 291° (WNW) 1,642 10.4 -21.6°
Sets 20:41:35 0° 328° (NNW) 2,517 10.9 -22.1°
